Погода в Поселке имени Свердлова

Россия / Санкт-Петербург и Ленинградская область     59°47′53″N   30°38′11″E
темп.,
°C
ветер,
м/с
пор.,
м/с
влажн.,
%
обл.,
%
осадки,
мм/ч
давл.,
гПа
погр.,
м
26 июля, пн
пн2600:00+14юз117417 0.0 102011
03:00+16юз2363100 0.0 102079
06:00+16юз226533 0.0 102049
09:00+23зюз23465 0.0 1020586
12:00+27з34355 0.0 10201646
15:00+28сз333224 0.0 10192460
18:00+28сз33335 0.0 10191511
21:00+20с11665 0.0 102014
27 июля, вт
вт2700:00+17ююз11725 0.0 102011
03:00+16ююз11730 0.0 102111
06:00+17ю11725 0.0 102113
09:00+24ю12475 0.0 1020425
12:00+29юз11315 0.0 10192326
15:00+31ю112550 0.0 10173182
18:00+28юв2434100 0.0 1016665
21:00+23юв245282 0.0 101667
28 июля, ср
ср2800:00+19юв226026 0.0 101526
03:00+17юв23655 0.0 101460
06:00+18юв2466100 0.0 101389
09:00+25вюв3545100 0.0 1011370
12:00+27юв4642100 0.0 10091090
15:00+27ююв4644100 0.0 10081617
18:00+22ю4870100 0.0 1007731
21:00+18ю2796100 0.6 1006342
29 июля, чт
чт2900:00+18ююв2598100 1.8 1005219
03:00+17ююз389927 1.9 1004250
06:00+16ююз389824 0.0 1003307
09:00+20юз477750 0.0 1002661
12:00+24юз574875 0.0 10011823
15:00+23юз6106649 1.4 10011472
18:00+19з5119079 4.6 10011017
21:00+17зюз512900 5.5 1000780
30 июля, пт
пт3000:00+16юз413933 0.2 1001633
03:00+15юз513893 0.2 1000687
06:00+16юз512840 0.0 1000767
09:00+20зюз611590 0.0 10001446
12:00+23зюз711375 0.0 10012466
15:00+24з6103799 0.0 10012732
18:00+24зюз5103527 0.0 10012570
21:00+20юз4105134 0.0 1001481